Regional Weather Roundup
Issued by NWS Midland/Odessa, TX

Home | Current Version | Previous Version | Text Only | Print | Product List | Glossary On
Versions: 1 2 3 4 5 6 7 8 9 10 11 12 13 14 15 16 17 18 19 20 21 22 23 24 25 26 27 28 29 30 31 32 33 34 35 36 37 38 39 40 41 42 43 44 45 46 47 48 49 50
000
ASUS44 KMAF 062210
RWRMAF
MIDLAND AREA WEATHER ROUNDUP
NATIONAL WEATHER SERVICE MIDLAND TX
500 PM CDT WED MAY 06 2015

...IN SOUTHWEST TEXAS AND SOUTHEAST NEW MEXICO...

CITY           SKY/WX    TMP DP  RH WIND       PRES   REMARKS
ALPINE         MOSUNNY   81  39  21 SW10      29.92F
ANDREWS        FAIR      85  37  17 SW12G21   29.81F
ARTESIA        SUNNY     84  32  15 SW21G32   29.79F
BIG SPRING     MOSUNNY   89  51  27 S17G24    29.80F
CARLSBAD       SUNNY     86  27  11 S17G26    29.77F
DRYDEN           N/A     84  66  54 E21G26    29.78F
FORT STOCKTON  PTSUNNY   86  53  32 E7        29.78F
GUAD PASS      SUNNY     77  31  18 SW30      29.91F
HOBBS          MOSUNNY   79  41  25 S14       29.84F
MARFA          MOSUNNY   81  37  21 S8G16     29.92F
MIDLAND AIRPK  SUNNY     88  49  25 S12G17    29.79F
MIDLAND INTL   PTSUNNY   88  52  29 SE20G29   29.79F
ODESSA         MOSUNNY   86  48  26 S14       29.80F
PECOS          SUNNY     90  38  16 S10       29.77F
PRESIDIO       FAIR      91  32  12 S10G17    29.77F
SEMINOLE       SUNNY     83  42  22 S14G24    29.83F
SNYDER         MOSUNNY   84  62  47 S15       29.79F
WINK           SUNNY     88  34  14 VRB6G18   29.77F
$$
...OTHER STATIONS IN TEXAS...

CITY           SKY/WX    TMP DP  RH WIND       PRES   REMARKS
ABILENE        PTSUNNY   81  61  50 SE30G37   29.80F
AMARILLO       MOSUNNY   79  44  28 SW26G37   29.77F
AUSTIN         MOSUNNY   86  69  56 S14       29.85F
BROWNSVILLE    CLOUDY    85  73  67 SE20      29.84F
CORPUS CHRISTI PTSUNNY   83  71  67 SE20      29.85F
DALLAS FTW     PTSUNNY   80  68  66 S14G23    29.85F
DEL RIO        PTSUNNY   81  68  64 SE17G29   29.77F
EL PASO        MOSUNNY   82  27  13 W12G21    29.82F
HOUSTON INT    PTSUNNY   79  71  76 SE21G26   29.92F
LUBBOCK        MOSUNNY   81  44  27 SW22G31   29.80F
SAN ANGELO     SUNNY     86  62  44 S24G35    29.79F
SAN ANTONIO    PTSUNNY   85  68  56 SE18      29.86F
WACO           MOSUNNY   85  67  54 S17       29.86F
WICHITA FALLS  NOT AVBL
$$
...OTHER LOCATIONS IN NEW MEXICO...

CITY           SKY/WX    TMP DP  RH WIND       PRES   REMARKS
ALAMAGORDO     MOSUNNY   79  32  18 S15G24    29.83F
ALBUQUERQUE    LGT RAIN  68  37  32 SW12G29   29.86F
CANNON AFB     MOSUNNY   74  43  32 SW21      29.83F
CLOVIS         MOSUNNY   73  46  38 SW20      29.84F
HOLLOMAN AFB   MOSUNNY   82  28  14 S16       29.81F
ROSWELL        MOSUNNY   82  37  20 S12G24    29.77F
RUIDOSO        SUNNY     66  25  20 SW7G29    29.98F
SANTA FE       PTSUNNY   65  32  29 W12G24    29.87F
TRUTH OR CONSE MOSUNNY   78  23  13 S17G30    29.81F
TUCUMCARI      MOSUNNY   79  39  23 SW23G32   29.74F
$$


USA.gov is the U.S. government's official web portal to all federal, state and local government web resources and services.